Вернуться в каталог

COSMOS 1249 COOLANT

LostLEO
NORAD 26511·DEBRIS·🇷🇺 Russia

Запущен Mar 5, 1981 с Baikonur Cosmodrome

Loading…

Ближайшие Пролёты (ближайшие 24 часа)

TLE

УстаревшееSource: Space-Track

Эпоха: Jul 7, 2026, 20:38 UTC

1 26511U 81021N   26188.85978101  .00000058  00000-0  11493-3 0  9995
2 26511  64.9597 268.4189 0063436 255.9844 216.4474 13.91815337650611

Отслеживайте COSMOS 1249 COOLANT в реальном времени с AllMySat

Download on the App Store